Weather History for Chatham, MA

Change the Weather History Date:

Wednesday, January 8, 2014

  Actual Average Record
Temperature  
Mean Temperature 16 °F -  
Max Temperature 23 °F 37 °F 55 °F (2007)
Min Temperature 9 °F 24 °F 3 °F (2015)
Degree Days  
Heating Degree Days 49    
Moisture  
Dew Point 1 °F    
Average Humidity 51    
Maximum Humidity 65    
Minimum Humidity 40    
Precipitation  
Precipitation 0.00 in - - ()
Sea Level Pressure  
Sea Level Pressure 30.42 in    
Wind  
Wind Speed 7 mph (WSW)    
Max Wind Speed 10 mph    
Max Gust Speed 18 mph    
Visibility 10 miles    
Events      
Averages and records for this station are not official NWS values.
T = Trace of Precipitation, MM = Missing Value Source: NWS Daily Summary

Daily Weather History Graph

Daily Weather History Graph

Search for Another Location

Airport:

Trip Planner

Search our weather history database for the weather conditions in past years. The results will help you decide how hot, cold, wet, or windy it might be!

Date:

Astronomy

Jan. 08, 2014 Rise Set
Actual Time 7:06 AM EST 4:26 PM EST
Civil Twilight 6:35 AM EST 4:58 PM EST
Nautical Twilight 6:01 AM EST 5:32 PM EST
Astronomical Twilight 5:27 AM EST 6:06 PM EST
Moon 11:20 AM EST (1/8) 12:05 AM EST (1/8)
Length of Visible Light 10h 22m
Length of Day
9h 20m
First Quarter, 56% of the Moon is Illuminated
Jan 8
First Quarter
Jan 15
Full
Jan 24
Last Quarter
Jan 30
New
Feb 6
First Quarter

Hourly Weather History & Observations

Time (EST) Temp. Windchill Dew Point Humidity Pressure Visibility Wind Dir Wind Speed Gust Speed Precip Events Conditions
12:52 AM 10.0 °F 0.4 °F -7.1 °F 46% 30.30 in 10.0 mi WSW 5.8 mph - N/A   Clear
1:52 AM 10.0 °F -1.9 °F -7.1 °F 46% 30.33 in 10.0 mi West 8.1 mph - N/A   Clear
2:52 AM 10.0 °F -1.9 °F -6.0 °F 48% 30.36 in 10.0 mi West 8.1 mph - N/A   Clear
3:52 AM 9.0 °F -0.9 °F -5.1 °F 53% 30.38 in 10.0 mi WSW 5.8 mph - N/A   Clear
4:52 AM 9.0 °F -2.2 °F -5.1 °F 53% 30.38 in 10.0 mi West 6.9 mph - N/A   Clear
5:52 AM 10.0 °F 1.8 °F -5.1 °F 51% 30.41 in 10.0 mi West 4.6 mph - N/A   Clear
6:52 AM 10.0 °F -1.9 °F -5.1 °F 51% 30.42 in 10.0 mi West 8.1 mph - N/A   Clear
7:52 AM 10.9 °F -1.8 °F -4.0 °F 51% 30.44 in 10.0 mi West 9.2 mph - N/A   Clear
8:52 AM 14.0 °F 2.0 °F -2.9 °F 47% 30.47 in 10.0 mi West 9.2 mph - N/A   Clear
9:52 AM 18.0 °F 8.7 °F -2.0 °F 41% 30.48 in 10.0 mi Variable 6.9 mph - N/A   Clear
10:52 AM 19.9 °F 10.1 °F 3.0 °F 48% 30.48 in 10.0 mi WSW 8.1 mph 17.3 mph N/A   Clear
11:52 AM 23.0 °F 15.8 °F 3.9 °F 44% 30.44 in 10.0 mi Variable 5.8 mph - N/A   Clear
12:52 PM 23.0 °F 13.9 °F 3.9 °F 44% 30.40 in 10.0 mi SW 8.1 mph - N/A   Clear
1:52 PM 23.0 °F 12.4 °F 1.9 °F 40% 30.40 in 10.0 mi SW 10.4 mph 18.4 mph N/A   Clear
2:52 PM 21.9 °F 11.7 °F 3.9 °F 46% 30.41 in 10.0 mi SW 9.2 mph 18.4 mph N/A   Clear
3:52 PM 21.9 °F 12.5 °F 6.1 °F 51% 30.42 in 10.0 mi WSW 8.1 mph - N/A   Clear
4:52 PM 19.9 °F 11.1 °F 8.1 °F 60% 30.43 in 10.0 mi Variable 6.9 mph - N/A   Clear
5:52 PM 19.9 °F 12.1 °F 10.0 °F 65% 30.44 in 10.0 mi West 5.8 mph - N/A   Clear
6:52 PM 19.9 °F 13.4 °F 10.0 °F 65% 30.44 in 10.0 mi West 4.6 mph - N/A   Clear
7:52 PM 19.0 °F 11.1 °F 8.1 °F 62% 30.45 in 10.0 mi West 5.8 mph - N/A   Clear
8:52 PM 18.0 °F 11.1 °F 3.9 °F 54% 30.47 in 10.0 mi West 4.6 mph - N/A   Clear
9:52 PM 18.0 °F 11.1 °F 3.9 °F 54% 30.46 in 10.0 mi Variable 4.6 mph - N/A   Scattered Clouds
10:52 PM 18.0 °F 12.7 °F 1.9 °F 50% 30.45 in 10.0 mi Variable 3.5 mph - N/A   Scattered Clouds
11:52 PM 17.1 °F 10.0 °F 1.9 °F 52% 30.46 in 10.0 mi WSW 4.6 mph - N/A   Mostly Cloudy